STARLINK-1522 (46027 NORAD) Tracking and Keplerian Element Data

This shows tracking and keplerian element data for the satellite.

Feedback or suggestion? Click here.




ElementValue
Catalog46027
NameSTARLINK-1522
Epoch Orbit1891
Epoch Day336.82790065
Epoch Year2020
RAAN123.1745
Inclination53.0013
Eccentricity0.0002179
Argument of Perigee97.4915
Mean Anonmoly262.632
Mean Motion15.05589609
Decay Rate1.227E-05
L11 46027U 20055A 20336.82790065 .00001227 00000-0 10336-3 0 9990
L22 46027 53.0013 123.1745 0002179 97.4915 262.6320 15.05589609 18918

Live tracking and technical data element details for STARLINK-1522 (NORAD 46027). STARLINK-1522 can be tracked NOW for your location showing map with azimuth and elevation plus other details from your city location.

Track the satellite on the map from your city or location and see movement details for azimuth, elevation, latitude, longitude, range, height, and movement on the map or in text.







IsCatalogInMostPopularTable: catalog: 46027, numindb: 34
Update: records affected: 1



GetName: 46027 STARLINK-1522

Hit Count: updated at: Thu, 03 Dec 2020 08:03:21 GMT